TimeCST,TemperatureF,Dew PointF,Humidity,Sea Level PressureIn,VisibilityMPH,Wind Direction,Wind SpeedMPH,Gust SpeedMPH,PrecipitationIn,Events,Conditions,WindDirDegrees,DateUTC
12:51 AM,42.1,27.0,55,30.24,10.0,NNW,11.5,-,N/A,,Clear,330,2013-02-28 06:51:00
1:51 AM,37.4,28.4,70,30.26,10.0,NW,9.2,-,N/A,,Clear,320,2013-02-28 07:51:00
2:51 AM,37.0,27.0,67,30.26,10.0,NNW,6.9,-,N/A,,Clear,330,2013-02-28 08:51:00
3:51 AM,33.8,26.6,75,30.25,10.0,NNW,5.8,-,N/A,,Clear,330,2013-02-28 09:51:00
4:51 AM,37.0,27.0,67,30.25,10.0,NNW,11.5,-,N/A,,Clear,340,2013-02-28 10:51:00
5:51 AM,37.0,26.1,65,30.27,10.0,NNW,6.9,-,N/A,,Clear,330,2013-02-28 11:51:00
6:51 AM,32.0,26.1,79,30.29,10.0,West,4.6,-,N/A,,Clear,260,2013-02-28 12:51:00
7:51 AM,33.8,28.4,81,30.31,8.0,West,5.8,-,N/A,,Clear,280,2013-02-28 13:51:00
8:51 AM,41.0,28.4,61,30.34,10.0,WNW,8.1,-,N/A,,Clear,300,2013-02-28 14:51:00
9:51 AM,46.0,28.0,50,30.33,10.0,NNW,12.7,-,N/A,,Clear,330,2013-02-28 15:51:00
10:51 AM,50.0,27.0,41,30.32,10.0,North,12.7,20.7,N/A,,Clear,350,2013-02-28 16:51:00
11:51 AM,52.0,28.0,40,30.30,10.0,NNW,12.7,21.9,N/A,,Clear,340,2013-02-28 17:51:00
12:51 PM,55.9,27.0,33,30.27,10.0,NNW,11.5,19.6,N/A,,Clear,330,2013-02-28 18:51:00
1:51 PM,57.2,26.6,31,30.23,10.0,NW,12.7,19.6,N/A,,Clear,320,2013-02-28 19:51:00
2:51 PM,60.8,26.6,27,30.21,10.0,NNW,13.8,23.0,N/A,,Clear,330,2013-02-28 20:51:00
3:51 PM,61.0,25.0,25,30.20,10.0,NNW,15.0,21.9,N/A,,Clear,330,2013-02-28 21:51:00
4:51 PM,59.0,21.9,24,30.19,10.0,NNW,16.1,24.2,N/A,,Clear,330,2013-02-28 22:51:00
5:51 PM,57.0,21.0,25,30.19,10.0,NNW,11.5,21.9,N/A,,Clear,330,2013-02-28 23:51:00
6:51 PM,53.1,21.9,30,30.21,10.0,NW,6.9,-,N/A,,Clear,320,2013-03-01 00:51:00
7:51 PM,48.0,23.0,37,30.22,10.0,WNW,5.8,-,N/A,,Clear,300,2013-03-01 01:51:00
8:51 PM,46.0,24.1,42,30.23,10.0,NW,8.1,-,N/A,,Clear,310,2013-03-01 02:51:00
9:47 PM,41.0,24.8,53,30.24,1.8,WNW,8.1,-,N/A,,Haze,290,2013-03-01 03:47:00
9:51 PM,41.0,25.0,53,30.24,1.0,WNW,6.9,-,N/A,,Haze,290,2013-03-01 03:51:00
9:59 PM,41.0,24.8,53,30.24,10.0,WNW,6.9,-,N/A,,Clear,290,2013-03-01 03:59:00
10:51 PM,37.9,24.1,57,30.24,10.0,WNW,5.8,-,N/A,,Clear,300,2013-03-01 04:51:00
11:51 PM,37.9,25.0,60,30.24,10.0,NNW,5.8,-,N/A,,Clear,340,2013-03-01 05:51:00